"Pseudo-MPEC" for P112aUc

Created 2020 Jul 2 22:07:04 UT using Find_Orb

Click here for an explanation of pseudo-MPECs

 
 Astrometry: 
     P112aUc  C2020 06 27[=kk^a.lRmAstrometryi4QXR(@v3kl/#A_XU5mr'^redacted;WF51
     P112aUc  C2020 06 27Bm#O:l=E$oMxF;C8JCrclick'sfP(!C!here\\2YOibC5%i9tp7tF51
     P112aUc  C2020 06 2715gfor52_Q2\[;^%pta\SjKo3:tVSI'DexplanationC83dNFJDwF51

Station data:
(F51) Pan-STARRS 1, Haleakala  (N20.707235 W156.255910)  US/Hawaii.
   Observers N. Primak, A. Schultz, S. Watters, J. Thiel, T. Goggia. Measurer
   PS1 Science Consortium. 1.8-m Ritchey-Chrétien + CCD.

Orbital elements:  P112aUc
   Perihelion 2020 Feb 20.308695 +/- 70 TT =  7:24:31 (JD 2458899.808695)
Epoch 2020 Jun 28.0 TT = JDT 2459028.5   Earth MOID: 0.0161   Ve: 0.0351
M 168.50303021 +/- 120              (J2000 ecliptic)          AutoNEOCP
n   1.30935831 +/- 0.819            Peri.   11.75424 +/- 80
a   0.82749181 +/- 0.345            Node    93.01250 +/- 70
e   0.2627392 +/- 0.227             Incl.    6.13930 +/- 56
P   0.75/274.94d           H 26.3   G  0.15   U 12.6  SR
q 0.61007725 +/- 0.377    Q 1.04490638 +/- 11.4
From 3 observations 2020 June 27 (33.4 min); mean residual 0".02
Residuals in arcseconds: 
200627 F51  .00   .02-    200627 F51  .01-  .04+    200627 F51  .00   .02-    

Ephemerides (geocentric):
Date (UTC) HH   RA              Dec         delta   r     elong  mag " sig PA
---- -- -- --  -------------   -----------  ------ ------ -----  --- ---- ---
2020 07 02 22  20 39 59.215   -49 56 25.43  .03343 1.0444 145.3 20.4  44d  31
2020 07 02 23  20 39 09.633   -50 06 16.01  .03344 1.0444 145.4 20.4  44d  31
2020 07 03 00  20 38 19.730   -50 16 04.83  .03345 1.0444 145.4 20.4  44d  31
2020 07 03 01  20 37 29.504   -50 25 51.87  .03346 1.0444 145.4 20.4  44d  31
2020 07 03 02  20 36 38.955   -50 35 37.10  .03348 1.0444 145.4 20.4  44d  31
2020 07 03 03  20 35 48.081   -50 45 20.47  .03349 1.0444 145.4 20.4  44d  31
2020 07 03 04  20 34 56.880   -50 55 01.97  .03350 1.0444 145.4 20.4  44d  32
2020 07 03 05  20 34 05.351   -51 04 41.55  .03351 1.0444 145.4 20.4  44d  32
2020 07 03 06  20 33 13.493   -51 14 19.19  .03352 1.0445 145.4 20.4  43d  32
2020 07 03 07  20 32 21.303   -51 23 54.86  .03354 1.0445 145.4 20.4  43d  32
2020 07 03 08  20 31 28.781   -51 33 28.51  .03355 1.0445 145.4 20.4  43d  32
2020 07 03 09  20 30 35.925   -51 43 00.13  .03356 1.0445 145.4 20.4  43d  32
2020 07 03 10  20 29 42.734   -51 52 29.68  .03358 1.0445 145.4 20.4  43d  33
2020 07 03 11  20 28 49.206   -52 01 57.13  .03359 1.0445 145.4 20.4  43d  33
2020 07 03 12  20 27 55.341   -52 11 22.44  .03361 1.0445 145.3 20.4  43d  33
2020 07 03 13  20 27 01.136   -52 20 45.60  .03362 1.0445 145.3 20.4  43d  33
2020 07 03 14  20 26 06.591   -52 30 06.55  .03364 1.0445 145.3 20.4  43d  33
2020 07 03 15  20 25 11.705   -52 39 25.29  .03366 1.0445 145.3 20.4  43d  34
2020 07 03 16  20 24 16.475   -52 48 41.76  .03367 1.0446 145.3 20.4  43d  34
2020 07 03 17  20 23 20.902   -52 57 55.95  .03369 1.0446 145.3 20.4  43d  34
2020 07 03 18  20 22 24.984   -53 07 07.83  .03371 1.0446 145.3 20.4  42d  34
2020 07 03 19  20 21 28.720   -53 16 17.35  .03373 1.0446 145.2 20.4  42d  34
2020 07 03 20  20 20 32.109   -53 25 24.49  .03375 1.0446 145.2 20.4  42d  34
2020 07 03 21  20 19 35.149   -53 34 29.23  .03377 1.0446 145.2 20.4  42d  35
2020 07 03 22  20 18 37.841   -53 43 31.53  .03379 1.0446 145.2 20.4  42d  35
2020 07 03 23  20 17 40.182   -53 52 31.36  .03381 1.0446 145.1 20.4  42d  35
2020 07 04 00  20 16 42.173   -54 01 28.69  .03383 1.0446 145.1 20.4  42d  35
2020 07 04 01  20 15 43.811   -54 10 23.49  .03385 1.0446 145.1 20.4  42d  35
2020 07 04 02  20 14 45.098   -54 19 15.74  .03387 1.0446 145.0 20.4  42d  35
2020 07 04 03  20 13 46.030   -54 28 05.39  .03389 1.0446 145.0 20.4  42d  36
2020 07 04 04  20 12 46.609   -54 36 52.43  .03392 1.0447 145.0 20.4  42d  36
2020 07 04 05  20 11 46.833   -54 45 36.83  .03394 1.0447 144.9 20.4  42d  36
2020 07 04 06  20 10 46.702   -54 54 18.55  .03396 1.0447 144.9 20.4  42d  36
2020 07 04 07  20 09 46.215   -55 02 57.57  .03399 1.0447 144.9 20.4  41d  36
2020 07 04 08  20 08 45.372   -55 11 33.85  .03401 1.0447 144.8 20.4  41d  36
2020 07 04 09  20 07 44.171   -55 20 07.38  .03404 1.0447 144.8 20.4  41d  37
2020 07 04 10  20 06 42.614   -55 28 38.12  .03406 1.0447 144.7 20.4  41d  37
2020 07 04 11  20 05 40.699   -55 37 06.04  .03409 1.0447 144.7 20.4  41d  37
2020 07 04 12  20 04 38.426   -55 45 31.12  .03411 1.0447 144.7 20.4  41d  37
2020 07 04 13  20 03 35.795   -55 53 53.33  .03414 1.0447 144.6 20.5  41d  37
2020 07 04 14  20 02 32.806   -56 02 12.64  .03417 1.0447 144.6 20.5  41d  37
2020 07 04 15  20 01 29.458   -56 10 29.02  .03420 1.0447 144.5 20.5  41d  38
2020 07 04 16  20 00 25.752   -56 18 42.45  .03422 1.0447 144.5 20.5  41d  38
2020 07 04 17  19 59 21.687   -56 26 52.91  .03425 1.0447 144.4 20.5  41d  38
2020 07 04 18  19 58 17.264   -56 35 00.35  .03428 1.0447 144.4 20.5  41d  38
2020 07 04 19  19 57 12.483   -56 43 04.77  .03431 1.0448 144.3 20.5  41d  38
2020 07 04 20  19 56 07.345   -56 51 06.13  .03434 1.0448 144.3 20.5  40d  39
2020 07 04 21  19 55 01.848   -56 59 04.41  .03437 1.0448 144.2 20.5  40d  39